Location: Unspecified
(43.4354°N, 0.0000°E)
Time: 12:49:32
(UTC+00:00)

Transit 2A - Pass Details

Date: 24 June 2019
Orbit: 597 x 962 km, 66.7° (Epoch: 19 August)

Event Time Altitude Azimuth Distance (km) Brightness Sun altitude
Rises 02:45:05 0° 285° (WNW) 3,642 9.3 -13.4°
Reaches altitude 10° 02:50:09 10° 319° (NW) 2,664 8.9 -12.8°
Maximum altitude 02:51:49 11° 335° (NNW) 2,572 9.1 -12.7°
Drops below altitude 10° 02:53:27 10° 351° (N) 2,626 9.4 -12.5°
Sets 02:58:20 0° 26° (NNE) 3,488 11.1 -11.9°
